Location: Oso Ridge
(35.0450°N, 108.0864°W)
Time: 09:21:19
(UTC-06:00)

Amateur Radio Satellites - All Passes

Search period start: 28 September 2016 08:51
Search period end: 29 September 2016 08:51
Location: Oso Ridge, 35.0450°N, 108.0864°W

Satellite Date Start Highest point End Downlink Frequencies (MHz)
Time Altitude Azimuth
NOAA 15 28 Sep 08:53:38 08:56:29 15° 297° (WNW) 08:59:18 137.62
COMPASS 1 28 Sep 08:58:08 09:01:49 29° 97° (E) 09:05:28 437.405
UWE-3 28 Sep 09:02:55 09:05:43 17° 94° (E) 09:08:34 435.000/436.395/437.385
Cosmos 2499 28 Sep 09:08:02 09:15:07 62° 93° (E) 09:22:02 435.465 / 435.565
Cubesat XI-IV 28 Sep 09:11:42 09:13:57 13° 298° (WNW) 09:16:11 437.490
CUTE-I 28 Sep 09:11:48 09:13:58 13° 298° (WNW) 09:16:08 437.470
CINEMA 3 28 Sep 09:16:23 09:20:25 49° 285° (WNW) 09:24:34 145.822/145.860
CUTE 1.7 + AOD 2 28 Sep 09:26:22 09:30:33 54° 285° (WNW) 09:34:43 437.475
SEEDS 28 Sep 09:26:59 09:31:15 79° 281° (WNW) 09:35:29 437.485
CANX-2 28 Sep 09:27:46 09:31:53 44° 286° (WNW) 09:35:57 2200.000
Oscar 11 28 Sep 09:28:28 09:31:36 19° 94° (E) 09:34:43 145.826/435.025
ZACube-1 28 Sep 09:30:54 09:34:17 22° 96° (E) 09:37:43 437.345
GONETS M04 28 Sep 09:36:03 09:44:52 76° 277° (W) 09:53:46
PHONESAT 2.4 28 Sep 09:40:07 09:42:03 16° 145° (SE) 09:43:58 2401.200-2431.200
AAUSAT CUBESAT 2 28 Sep 09:48:23 09:52:35 85° 283° (WNW) 09:56:45 437.432
ANTELSAT 28 Sep 09:53:11 09:56:18 20° 69° (ENE) 09:59:25 437.575/2403.000
BEESAT 2 28 Sep 09:57:26 09:59:51 15° 50° (NE) 10:02:15 435.950
TIGRISAT 28 Sep 10:12:50 10:16:36 31° 72° (ENE) 10:20:22 435.000
HO-68 28 Sep 10:17:46 10:24:06 35° 294° (WNW) 10:30:24 435.675
PRISM 28 Sep 10:19:30 10:22:30 19° 265° (W) 10:25:31 437.425
CUBEBUG 2 28 Sep 10:21:07 10:25:04 36° 287° (WNW) 10:29:07 437.445
FUNcube-1 28 Sep 10:23:55 10:28:17 87° 104° (ESE) 10:32:44 145.935
COMPASS 1 28 Sep 10:34:08 10:37:08 19° 291° (WNW) 10:40:07 437.405
BEESAT 3 28 Sep 10:37:20 10:41:19 86° 61° (ENE) 10:45:17 437.485
UWE-3 28 Sep 10:38:16 10:42:13 35° 287° (WNW) 10:46:16 435.000/436.395/437.385
JAS-2 28 Sep 10:48:04 10:51:38 15° 57° (ENE) 10:55:22 435.910
UNISAT 6 28 Sep 10:53:03 10:57:20 76° 259° (W) 11:01:35 437.425
NANOSAT C BR1 28 Sep 10:57:20 10:58:53 12° 66° (ENE) 11:00:27 145.865
Cosmos 2499 28 Sep 11:03:53 11:08:41 19° 289° (WNW) 11:13:27 435.465 / 435.565
Oscar 11 28 Sep 11:03:54 11:07:44 30° 288° (WNW) 11:11:32 145.826/435.025
DELFI C3 28 Sep 11:04:29 11:08:31 75° 282° (WNW) 11:12:29 145.870
ZACube-1 28 Sep 11:06:49 11:10:30 27° 289° (WNW) 11:14:15 437.345
PHONESAT 2.4 28 Sep 11:14:58 11:17:53 73° 339° (NNW) 11:20:49 2401.200-2431.200
QB50P2 28 Sep 11:19:09 11:22:35 25° 70° (ENE) 11:26:02 145.880/145.840
POLYITAN 1 28 Sep 11:21:22 11:24:48 25° 71° (ENE) 11:28:14 437.675
HUMSAT D 28 Sep 11:22:18 11:26:35 80° 103° (ESE) 11:30:52 437.325/437.525
ANTELSAT 28 Sep 11:29:09 11:32:49 28° 263° (W) 11:36:30 437.575/2403.000
BEESAT 2 28 Sep 11:34:03 11:37:51 42° 246° (WSW) 11:41:38 435.950
GONETS M04 28 Sep 11:39:52 11:43:12 12° 297° (WNW) 11:46:34
TIGRISAT 28 Sep 11:50:30 11:53:20 17° 266° (W) 11:56:10 435.000
DUCHIFAT 1 28 Sep 11:57:46 12:01:52 59° 75° (ENE) 12:05:59 145.980
BUGSAT 1 28 Sep 11:58:53 12:02:06 23° 70° (ENE) 12:05:19 437.445
QB50P1 28 Sep 12:00:25 12:04:37 76° 75° (ENE) 12:08:48 145.935-145.965
VELOX 1 28 Sep 12:09:17 12:12:00 16° 94° (E) 12:14:42 145.980
ESTCUBE 1 28 Sep 12:11:08 12:15:22 38° 99° (E) 12:19:33 437.505/2401.250
CUBEBUG 1 28 Sep 12:11:26 12:14:52 23° 96° (E) 12:18:16 437.445
POPSAT HIP 1 28 Sep 12:14:01 12:18:12 75° 259° (W) 12:22:24 437.405
AIST 2 28 Sep 12:23:48 12:26:56 20° 52° (NE) 12:30:02 435.215
50 SAT 28 Sep 12:24:46 12:27:37 21° 96° (E) 12:30:26 437.505
JAS-2 28 Sep 12:29:06 12:35:26 88° 256° (WSW) 12:42:40 435.910
NANOSAT C BR1 28 Sep 12:30:06 12:34:09 48° 260° (W) 12:38:13 145.865
Oscar 19 28 Sep 12:32:51 12:35:10 13° 63° (ENE) 12:37:29 437.125/150
M-CUBED/EXP-1 PRIME 28 Sep 12:37:19 12:38:45 12° 100° (E) 12:40:13 437.505
SPROUT 28 Sep 12:49:26 12:52:57 25° 96° (E) 12:56:28 437.525
PHONESAT 2.4 28 Sep 12:51:40 12:54:15 27° 355° (N) 12:56:52 2401.200-2431.200
QB50P2 28 Sep 12:55:02 12:58:18 22° 264° (W) 13:01:35 145.880/145.840
POLYITAN 1 28 Sep 12:57:16 13:00:31 22° 264° (W) 13:03:46 437.675
AISAT 28 Sep 13:00:40 13:05:02 71° 101° (ESE) 13:09:24 437.250
UKube-1 28 Sep 13:04:31 13:08:24 32° 98° (E) 13:12:14 .
Cosmos 2491 28 Sep 13:30:57 13:32:42 11° 76° (ENE) 13:34:26 435.465 / 435.565
AUBIESAT-1 28 Sep 13:32:08 13:35:25 64° 106° (ESE) 13:38:45 437.475
YUBILEINY 28 Sep 13:32:44 13:39:39 26° 71° (ENE) 13:46:30 435.215
Gurwin Techsat 1B 28 Sep 13:33:22 13:37:35 25° 67° (ENE) 13:41:47 435.225
DX 1 28 Sep 13:33:59 13:38:20 82° 284° (WNW) 13:42:39 434.975-435.025
BUGSAT 1 28 Sep 13:34:04 13:37:21 23° 264° (W) 13:40:38 437.445
VELOX 1 28 Sep 13:44:30 13:48:34 37° 288° (WNW) 13:52:35 145.980
CUBEBUG 1 28 Sep 13:47:30 13:51:03 25° 290° (WNW) 13:54:35 437.445
ESTCUBE 1 28 Sep 13:48:52 13:51:50 17° 293° (WNW) 13:54:46 437.505/2401.250
50 SAT 28 Sep 13:58:19 14:00:57 19° 290° (WNW) 14:03:34 437.505
AIST 2 28 Sep 14:01:40 14:05:28 34° 247° (WSW) 14:09:14 435.215
Cosmos 2504 28 Sep 14:04:08 14:06:45 12° 67° (ENE) 14:09:25 435.465 / 435.565
TISAT 1 28 Sep 14:07:12 14:11:03 36° 98° (E) 14:14:54 437.305
Oscar 19 28 Sep 14:08:41 14:13:50 68° 258° (WSW) 14:19:02 437.125/150
M-CUBED/EXP-1 PRIME 28 Sep 14:10:38 14:13:20 24° 292° (WNW) 14:16:02 437.505
PCSat 28 Sep 14:14:37 14:20:02 69° 63° (ENE) 14:25:24 145.827
JAS-2 28 Sep 14:19:37 14:21:34 11° 275° (W) 14:23:36 435.910
SPROUT 28 Sep 14:25:26 14:28:44 22° 290° (WNW) 14:32:02 437.525
PHONESAT 2.4 28 Sep 14:28:03 14:30:47 34° 12° (NNE) 14:33:31 2401.200-2431.200
UKube-1 28 Sep 14:41:12 14:44:10 18° 292° (WNW) 14:47:08 .
ITUPSAT 1 28 Sep 14:45:17 14:48:29 17° 94° (E) 14:51:39 437.325
AO-7 28 Sep 14:56:58 15:04:14 35° 62° (ENE) 15:11:30 29.400- 29.500
SWISSCUBE 28 Sep 14:57:15 15:01:20 27° 97° (E) 15:05:24 437.505
ITAMSAT 1 28 Sep 15:03:30 15:08:27 49° 72° (ENE) 15:13:25 435.822/435.867
BEESAT 28 Sep 15:09:57 15:14:17 33° 98° (E) 15:18:35 436.000
Gurwin Techsat 1B 28 Sep 15:12:27 15:17:17 36° 262° (W) 15:22:09 435.225
Cosmos 2491 28 Sep 15:19:09 15:27:52 75° 93° (E) 15:36:40 435.465 / 435.565
SO-50 28 Sep 15:21:53 15:26:43 78° 118° (ESE) 15:31:32 436.795
YUBILEINY 28 Sep 15:28:25 15:36:54 60° 269° (W) 15:45:22 435.215
TISAT 1 28 Sep 15:43:55 15:46:22 15° 293° (WNW) 15:48:48 437.305
Cosmos 2504 28 Sep 15:53:32 16:01:05 82° 84° (E) 16:09:10 435.465 / 435.565
PCSat 28 Sep 16:00:28 16:02:44 13° 257° (WSW) 16:05:02 145.827
PHONESAT 2.4 28 Sep 16:04:05 16:06:59 55° 207° (SSW) 16:09:53 2401.200-2431.200
ITUPSAT 1 28 Sep 16:21:55 16:26:25 41° 288° (WNW) 16:30:55 437.325
MOZHAYETS 4 28 Sep 16:29:41 16:34:04 40° 98° (E) 16:38:25
SWISSCUBE 28 Sep 16:35:01 16:39:00 26° 291° (WNW) 16:42:58 437.505
AIST 1 28 Sep 16:43:25 16:47:36 51° 81° (E) 16:51:43
ITAMSAT 1 28 Sep 16:44:54 16:48:08 17° 266° (W) 16:51:22 435.822/435.867
BEESAT 28 Sep 16:48:11 16:51:49 22° 292° (WNW) 16:55:28 436.000
AO-7 28 Sep 16:48:47 16:56:42 48° 258° (WSW) 17:04:39 29.400- 29.500
KKS-1 28 Sep 16:49:37 16:53:46 39° 99° (E) 16:57:55 437.445
HORYU 2 28 Sep 17:04:40 17:08:40 34° 71° (ENE) 17:12:39 437.375
O/OREOS (USA 219) 28 Sep 17:04:57 17:08:58 29° 64° (ENE) 17:12:58 437.305
SO-50 28 Sep 17:05:24 17:07:44 13° 314° (NW) 17:10:03 436.795
GOMX 1 28 Sep 17:16:42 17:18:55 13° 65° (ENE) 17:21:06 467.674
Cosmos 2491 28 Sep 17:19:23 17:25:31 21° 292° (WNW) 17:31:43 435.465 / 435.565
STARS 28 Sep 17:21:06 17:25:14 41° 99° (E) 17:29:21 437.465
BRITE-PL 28 Sep 17:27:52 17:33:08 40° 72° (ENE) 17:38:20 437.365/2234.400
Cosmos 2504 28 Sep 17:49:42 17:53:34 15° 278° (W) 17:57:32 435.465 / 435.565
CUBESAT XI-V 28 Sep 17:51:36 17:55:58 38° 98° (E) 18:00:18 437.345
NOAA 18 28 Sep 17:57:09 18:01:24 24° 66° (ENE) 18:05:39 137.9125
MOZHAYETS 4 28 Sep 18:07:50 18:10:53 17° 293° (WNW) 18:13:54
CUSAT 1 28 Sep 18:12:26 18:16:03 16° 79° (E) 18:20:03 437.405
KKS-1 28 Sep 18:27:17 18:29:59 16° 293° (WNW) 18:32:42 437.445
NOAA 15 28 Sep 18:28:41 18:33:57 72° 74° (ENE) 18:39:16 137.62
HORYU 2 28 Sep 18:42:21 18:45:15 17° 265° (W) 18:48:11 437.375
O/OREOS (USA 219) 28 Sep 18:44:38 18:48:11 22° 259° (W) 18:51:41 437.305
CUTE-I 28 Sep 18:47:48 18:53:06 88° 75° (ENE) 18:58:26 437.470
Cubesat XI-IV 28 Sep 18:47:55 18:53:14 87° 77° (ENE) 18:58:34 437.490
GOMX 1 28 Sep 18:50:58 18:56:23 74° 258° (WSW) 19:01:37 467.674
HO-68 28 Sep 18:56:31 19:01:37 22° 61° (ENE) 19:06:43 435.675
STARS 28 Sep 18:58:43 19:01:12 15° 294° (WNW) 19:03:42 437.465
Cosmos 2499 28 Sep 19:03:16 19:08:02 17° 70° (ENE) 19:12:59 435.465 / 435.565
LilacSat-2 28 Sep 19:03:52 19:07:31 49° 260° (W) 19:11:10 437.200
BRITE-PL 28 Sep 19:07:01 19:11:35 25° 265° (W) 19:16:09 437.365/2234.400
DOVE 4 28 Sep 19:08:24 19:13:27 73° 76° (ENE) 19:18:14 437.250
STRAND 1 28 Sep 19:16:38 19:18:54 13° 92° (E) 19:21:09 437.568
JUGNU 28 Sep 19:21:40 19:22:43 10° 165° (SSE) 19:23:46 437.505
CUBESAT XI-V 28 Sep 19:29:51 19:33:01 18° 293° (WNW) 19:36:10 437.345
NOAA 18 28 Sep 19:36:42 19:41:47 39° 261° (W) 19:46:53 137.9125
RS-15 28 Sep 19:40:01 19:51:01 55° 110° (ESE) 20:02:34 29.354- 29.394
COMPASS 1 28 Sep 19:47:06 19:49:10 14° 67° (ENE) 19:51:15 437.405
DANDE 28 Sep 19:49:33 19:54:05 37° 88° (E) 19:59:56 436.750
GONETS M04 28 Sep 19:50:44 19:59:09 47° 78° (ENE) 20:07:27
CUSAT 1 28 Sep 19:50:47 19:56:48 75° 280° (W) 20:04:20 437.405
ISS 28 Sep 20:12:06 20:15:21 83° 318° (NW) 20:18:37 145.825
NOAA 15 28 Sep 20:12:35 20:14:11 11° 269° (W) 20:15:47 137.62
CINEMA 3 28 Sep 20:14:17 20:18:48 85° 255° (WSW) 20:23:10 145.822/145.860
SEEDS 28 Sep 20:15:12 20:19:12 44° 74° (ENE) 20:23:13 437.485
CUTE 1.7 + AOD 2 28 Sep 20:15:16 20:19:27 67° 75° (ENE) 20:23:41 437.475
CANX-2 28 Sep 20:16:41 20:20:53 83° 79° (ENE) 20:25:10 2200.000
Oscar 11 28 Sep 20:22:46 20:23:18 10° 65° (ENE) 20:23:49 145.826/435.025
ZACube-1 28 Sep 20:25:58 20:27:03 11° 66° (ENE) 20:28:09 437.345
AAUSAT CUBESAT 2 28 Sep 20:35:11 20:39:02 38° 73° (ENE) 20:42:56 437.432
HO-68 28 Sep 20:41:34 20:48:41 67° 257° (WSW) 20:55:49 435.675
STRAND 1 28 Sep 20:53:19 20:58:25 62° 286° (WNW) 21:03:29 437.568
Cosmos 2499 28 Sep 20:54:06 21:01:46 79° 266° (W) 21:10:04 435.465 / 435.565
AO-85 28 Sep 21:02:20 21:07:36 72° 117° (ESE) 21:12:34 145.980
JUGNU 28 Sep 21:07:17 21:10:58 17° 174° (S) 21:14:39 437.505
CUBEBUG 2 28 Sep 21:15:37 21:19:49 65° 259° (W) 21:23:57 437.445
FUNcube-1 28 Sep 21:16:22 21:20:14 41° 74° (ENE) 21:24:08 145.935
COMPASS 1 28 Sep 21:20:22 21:24:19 42° 261° (W) 21:28:19 437.405
UWE-3 28 Sep 21:31:39 21:35:47 66° 259° (W) 21:39:55 435.000/436.395/437.385
DANDE 28 Sep 21:32:49 21:37:04 25° 293° (WNW) 21:42:19 436.750
CUSAT 1 28 Sep 21:38:15 21:40:24 11° 301° (WNW) 21:42:40 437.405
DELFI C3 28 Sep 21:46:54 21:50:34 37° 73° (ENE) 21:54:17 145.870
GONETS M04 28 Sep 21:48:06 21:55:34 33° 275° (W) 22:03:00
ISS 28 Sep 21:51:01 21:52:17 12° 334° (NNW) 21:53:33 145.825
RS-15 28 Sep 21:52:51 22:03:45 43° 312° (NW) 22:15:13 29.354- 29.394
SEEDS 28 Sep 21:53:23 21:55:04 12° 268° (W) 21:56:47 437.485
Oscar 11 28 Sep 21:54:37 21:58:51 61° 260° (W) 22:03:08 145.826/435.025
ZACube-1 28 Sep 21:58:50 22:02:52 50° 260° (W) 22:06:54 437.345
PRISM 28 Sep 22:02:49 22:06:57 73° 102° (ESE) 22:11:00 437.425
SRMSAT 28 Sep 22:07:08 22:09:19 12° 167° (SSE) 22:11:30 437.500
HUMSAT D 28 Sep 22:10:29 22:14:09 33° 72° (ENE) 22:17:52 437.325/437.525
AAUSAT CUBESAT 2 28 Sep 22:12:32 22:14:39 14° 267° (W) 22:16:46 437.432
AO-85 28 Sep 22:45:30 22:48:28 15° 312° (NW) 22:51:21 145.980
UNISAT 6 28 Sep 22:47:58 22:51:47 28° 97° (E) 22:55:40 437.425
Cosmos 2499 28 Sep 22:52:07 22:53:44 11° 281° (W) 22:55:23 435.465 / 435.565
FUNcube-1 28 Sep 22:54:59 22:56:40 12° 268° (W) 22:58:20 145.935
JUGNU 28 Sep 22:55:31 22:59:15 17° 185° (S) 23:02:59 437.505
CUBEBUG 1 28 Sep 23:05:23 23:07:39 14° 66° (ENE) 23:09:54 437.445
VELOX 1 28 Sep 23:05:39 23:06:24 10° 64° (ENE) 23:07:08 145.980
ESTCUBE 1 28 Sep 23:07:46 23:11:25 24° 70° (ENE) 23:15:05 437.505/2401.250
M-CUBED/EXP-1 PRIME 28 Sep 23:20:39 23:22:44 14° 64° (ENE) 23:24:44 437.505
ANTELSAT 28 Sep 23:22:49 23:27:16 72° 101° (E) 23:31:47 437.575/2403.000
DELFI C3 28 Sep 23:23:36 23:25:31 13° 267° (W) 23:27:26 145.870
SPROUT 28 Sep 23:41:09 23:43:16 14° 67° (ENE) 23:45:22 437.525
TIGRISAT 28 Sep 23:43:05 23:47:28 70° 285° (WNW) 23:51:58 435.000
JAS-2 28 Sep 23:43:51 23:49:03 19° 89° (E) 23:54:01 435.910
DUCHIFAT 1 28 Sep 23:47:06 23:48:40 12° 93° (E) 23:50:14 145.980
HUMSAT D 28 Sep 23:47:29 23:49:51 15° 267° (W) 23:52:13 437.325/437.525
QB50P1 28 Sep 23:49:38 23:52:08 15° 94° (E) 23:54:38 145.935-145.965
SRMSAT 28 Sep 23:53:56 23:57:44 18° 177° (S) 00:01:31 437.500
AISAT 28 Sep 23:54:37 23:58:47 41° 73° (ENE) 00:02:58 437.250
UKube-1 28 Sep 23:56:32 23:59:34 19° 68° (ENE) 00:02:36 .
SO-50 28 Sep 23:57:00 00:00:55 28° 53° (NE) 00:04:45 436.795
POPSAT HIP 1 29 Sep 00:02:36 00:05:52 22° 96° (E) 00:09:08 437.405
RS-15 29 Sep 00:14:12 00:20:55 16° 343° (NNW) 00:27:46 29.354- 29.394
AUBIESAT-1 29 Sep 00:14:35 00:18:32 48° 71° (ENE) 00:22:14 437.475
NANOSAT C BR1 29 Sep 00:17:43 00:21:28 31° 97° (E) 00:25:14 145.865
UNISAT 6 29 Sep 00:24:53 00:28:20 23° 290° (WNW) 00:31:50 437.425
BEESAT 3 29 Sep 00:24:54 00:28:18 30° 113° (ESE) 00:31:46 437.485
DX 1 29 Sep 00:25:56 00:30:13 55° 74° (ENE) 00:34:30 434.975-435.025
50 SAT 29 Sep 00:30:29 00:34:05 75° 259° (W) 00:37:45 437.505
VELOX 1 29 Sep 00:37:50 00:42:15 65° 258° (WSW) 00:46:41 145.980
CUBEBUG 1 29 Sep 00:39:15 00:43:30 46° 261° (W) 00:47:45 437.445
QB50P2 29 Sep 00:41:54 00:46:08 75° 102° (ESE) 00:50:21 145.880/145.840
POLYITAN 1 29 Sep 00:44:05 00:48:19 75° 102° (ESE) 00:52:33 437.675
ESTCUBE 1 29 Sep 00:44:17 00:48:05 26° 264° (W) 00:51:54 437.505/2401.250
JUGNU 29 Sep 00:45:55 00:47:30 11° 194° (SSW) 00:49:04 437.505
M-CUBED/EXP-1 PRIME 29 Sep 00:52:58 00:56:58 41° 255° (WSW) 01:00:42 437.505
TISAT 1 29 Sep 00:56:25 00:59:19 18° 68° (ENE) 01:02:13 437.305
SPROUT 29 Sep 01:14:43 01:18:47 43° 261° (W) 01:22:52 437.525
BUGSAT 1 29 Sep 01:17:58 01:21:57 60° 101° (E) 01:25:55 437.445
DUCHIFAT 1 29 Sep 01:20:33 01:24:33 45° 286° (WNW) 01:28:32 145.980
BEESAT 2 29 Sep 01:22:16 01:26:09 71° 118° (ESE) 01:30:07 435.950
QB50P1 29 Sep 01:24:09 01:27:59 35° 287° (WNW) 01:31:50 145.935-145.965
JAS-2 29 Sep 01:26:50 01:34:41 75° 286° (WNW) 01:42:01 435.910
UKube-1 29 Sep 01:31:29 01:35:20 32° 262° (W) 01:39:13 .
AISAT 29 Sep 01:32:51 01:35:24 15° 266° (W) 01:37:56 437.250
Cosmos 2491 29 Sep 01:34:19 01:41:57 31° 73° (ENE) 01:49:28 435.465 / 435.565
SO-50 29 Sep 01:37:31 01:41:16 26° 249° (WSW) 01:44:57 436.795
POPSAT HIP 1 29 Sep 01:38:06 01:41:34 25° 289° (WNW) 01:45:02 437.405
SRMSAT 29 Sep 01:42:38 01:46:10 16° 187° (S) 01:49:42 437.500
ITUPSAT 1 29 Sep 01:49:43 01:52:21 15° 65° (ENE) 01:54:59 437.325
AUBIESAT-1 29 Sep 01:52:16 01:53:04 10° 261° (W) 01:53:51 437.475
NANOSAT C BR1 29 Sep 01:54:07 01:56:56 18° 292° (WNW) 01:59:46 145.865
Gurwin Techsat 1B 29 Sep 01:54:28 01:56:19 12° 91° (E) 01:58:09 435.225
SWISSCUBE 29 Sep 02:00:57 02:04:36 22° 68° (ENE) 02:08:16 437.505
BEESAT 3 29 Sep 02:03:09 02:05:59 19° 308° (NW) 02:08:51 437.485
DX 1 29 Sep 02:05:48 02:06:41 10° 268° (W) 02:07:33 434.975-435.025
BEESAT 29 Sep 02:13:25 02:17:23 27° 69° (ENE) 02:21:22 436.000
Oscar 19 29 Sep 02:23:36 02:28:39 55° 100° (E) 02:33:40 437.125/150
YUBILEINY 29 Sep 02:29:32 02:37:02 33° 85° (E) 02:44:30 435.215
TISAT 1 29 Sep 02:31:02 02:34:43 30° 262° (W) 02:38:24 437.305
RS-15 29 Sep 02:33:21 02:40:56 18° 22° (NNE) 02:48:30 29.354- 29.394
ISS 29 Sep 02:42:50 02:45:40 26° 35° (NE) 02:48:29 145.825
BEESAT 2 29 Sep 03:04:11 03:04:26 10° 314° (NW) 03:04:41 435.950
AO-7 29 Sep 03:06:50 03:07:53 10° 90° (E) 03:08:55 29.400- 29.500
PCSat 29 Sep 03:12:46 03:15:21 14° 103° (ESE) 03:17:57 145.827
JAS-2 29 Sep 03:14:42 03:18:17 14° 304° (WNW) 03:21:48 435.910
ITAMSAT 1 29 Sep 03:20:13 03:24:17 23° 95° (E) 03:28:20 435.822/435.867
ITUPSAT 1 29 Sep 03:25:06 03:29:42 50° 260° (W) 03:34:21 437.325
MOZHAYETS 4 29 Sep 03:28:40 03:32:27 26° 70° (ENE) 03:36:15
Cosmos 2491 29 Sep 03:30:34 03:38:59 51° 271° (W) 03:47:20 435.465 / 435.565
Gurwin Techsat 1B 29 Sep 03:31:23 03:36:41 70° 285° (WNW) 03:41:58 435.225
SWISSCUBE 29 Sep 03:37:56 03:42:10 32° 263° (W) 03:46:26 437.505
KKS-1 29 Sep 03:44:49 03:48:26 25° 70° (ENE) 03:52:03 437.445
BEESAT 29 Sep 03:51:06 03:55:03 26° 264° (W) 03:59:02 436.000
AIST 2 29 Sep 03:55:25 03:59:29 75° 300° (WNW) 04:03:38 435.215
Oscar 19 29 Sep 04:04:30 04:07:28 16° 295° (WNW) 04:10:26 437.125/150
STARS 29 Sep 04:14:53 04:18:27 25° 70° (ENE) 04:22:00 437.465
ISS 29 Sep 04:19:18 04:22:05 25° 229° (SW) 04:24:51 145.825
YUBILEINY 29 Sep 04:25:05 04:33:27 47° 282° (WNW) 04:41:49 435.215
Cosmos 2504 29 Sep 04:28:12 04:35:39 76° 94° (E) 04:42:50 435.465 / 435.565
RS-15 29 Sep 04:45:35 04:57:34 51° 52° (NE) 05:09:11 29.354- 29.394
CUSAT 1 29 Sep 04:51:42 04:53:18 11° 58° (ENE) 04:54:51 437.405
CUBESAT XI-V 29 Sep 04:51:51 04:55:45 26° 70° (ENE) 04:59:39 437.345
PCSat 29 Sep 04:52:44 04:58:06 66° 298° (WNW) 05:03:30 145.827
AO-7 29 Sep 04:53:27 05:01:46 73° 105° (ESE) 05:10:02 29.400- 29.500
ITAMSAT 1 29 Sep 04:59:01 05:03:47 37° 290° (WNW) 05:08:33 435.822/435.867
MOZHAYETS 4 29 Sep 05:05:46 05:09:30 25° 264° (W) 05:13:16
AIST 1 29 Sep 05:09:09 05:13:10 36° 92° (E) 05:17:11
KKS-1 29 Sep 05:21:13 05:24:51 25° 263° (W) 05:28:32 437.445
AO-85 29 Sep 05:38:25 05:41:35 21° 51° (NE) 05:44:37 145.980
BRITE-PL 29 Sep 05:38:39 05:40:44 13° 90° (E) 05:42:45 437.365/2234.400
STARS 29 Sep 05:51:07 05:54:41 24° 263° (W) 05:58:15 437.465
NOAA 18 29 Sep 06:23:54 06:25:53 12° 92° (E) 06:27:53 137.9125
Cosmos 2504 29 Sep 06:25:37 06:29:42 15° 291° (WNW) 06:33:43 435.465 / 435.565
CUBESAT XI-V 29 Sep 06:29:05 06:33:00 26° 264° (W) 06:36:56 437.345
CUSAT 1 29 Sep 06:29:27 06:36:59 70° 80° (E) 06:43:02 437.405
STRAND 1 29 Sep 06:29:39 06:32:16 14° 64° (ENE) 06:34:54 437.568
DANDE 29 Sep 06:30:39 06:38:09 35° 72° (ENE) 06:44:59 436.750
HORYU 2 29 Sep 06:34:33 06:39:00 73° 286° (WNW) 06:43:27 437.375
LilacSat-2 29 Sep 06:40:49 06:43:45 21° 95° (E) 06:46:41 437.200
NOAA 15 29 Sep 06:47:30 06:52:19 35° 98° (E) 06:57:05 137.62
AO-7 29 Sep 06:47:40 06:53:43 23° 303° (WNW) 06:59:46 29.400- 29.500
AIST 1 29 Sep 06:48:16 06:50:52 15° 286° (WNW) 06:53:28
GOMX 1 29 Sep 06:57:01 07:01:04 39° 98° (E) 07:04:57 467.674
RS-15 29 Sep 06:58:28 07:09:56 47° 252° (WSW) 07:21:04 29.354- 29.394
CUTE-I 29 Sep 07:08:15 07:13:24 46° 100° (E) 07:18:31 437.470
Cubesat XI-IV 29 Sep 07:08:34 07:13:42 46° 99° (E) 07:18:50 437.490
DOVE 4 29 Sep 07:11:35 07:14:47 21° 95° (E) 07:17:57 437.250
O/OREOS (USA 219) 29 Sep 07:13:20 07:17:48 62° 107° (ESE) 07:22:21 437.305
BRITE-PL 29 Sep 07:15:04 07:19:34 46° 287° (WNW) 07:23:44 437.365/2234.400
AO-85 29 Sep 07:18:36 07:21:57 26° 248° (WSW) 07:25:11 145.980
Cosmos 2499 29 Sep 07:40:05 07:42:23 12° 80° (E) 07:44:40 435.465 / 435.565
NOAA 18 29 Sep 08:01:32 08:07:00 72° 285° (WNW) 08:12:27 137.9125
CUTE 1.7 + AOD 2 29 Sep 08:04:46 08:07:15 15° 93° (E) 08:09:43 437.475
STRAND 1 29 Sep 08:05:52 08:10:53 60° 259° (WSW) 08:15:57 437.568
CANX-2 29 Sep 08:05:53 08:08:52 18° 94° (E) 08:11:52 2200.000
CINEMA 3 29 Sep 08:12:21 08:15:54 26° 97° (E) 08:19:32 145.822/145.860
DANDE 29 Sep 08:13:10 08:21:04 47° 270° (W) 08:28:08 436.750
CUSAT 1 29 Sep 08:13:27 08:17:49 17° 280° (W) 08:21:46 437.405
HO-68 29 Sep 08:13:28 08:19:30 29° 97° (E) 08:25:30 435.675
LilacSat-2 29 Sep 08:14:57 08:17:56 22° 289° (WNW) 08:20:54 437.200
NOAA 15 29 Sep 08:27:38 08:31:52 25° 293° (WNW) 08:36:05 137.62
GOMX 1 29 Sep 08:36:28 08:38:46 14° 294° (WNW) 08:41:01 467.674
